Hot Springs, VA

8:29 PM EDT on June 22, 2017 (GMT -0400)
Ingalls

Weather History for KHSP - February, 2011

Change the Weather History Date:

Friday, February 25, 2011

  Actual Average Record
Temperature  
Mean Temperature 38 °F -  
Max Temperature 53 °F 38 °F 57 °F (2001)
Min Temperature 24 °F 23 °F 14 °F (2015)
Degree Days  
Heating Degree Days 26    
Moisture  
Dew Point 37 °F    
Average Humidity 96    
Maximum Humidity 100    
Minimum Humidity 72    
Precipitation  
Precipitation 0.00 in - - ()
Sea Level Pressure  
Sea Level Pressure 29.71 in    
Wind  
Wind Speed 22 mph (WSW)    
Max Wind Speed 39 mph    
Max Gust Speed 55 mph    
Visibility 7 miles    
Events      
Averages and records for this station are not official NWS values.
T = Trace of Precipitation, MM = Missing Value Source: NWS Daily Summary

Daily Weather History Graph

Daily Weather History Graph

Search for Another Location

Airport or City:

Trip Planner

Search our weather history database for the weather conditions in past years. The results will help you decide how hot, cold, wet, or windy it might be!

Date:

Astronomy

Feb. 25, 2011 Rise Set
Actual Time 6:56 AM EST 6:08 PM EST
Civil Twilight 6:30 AM EST 6:35 PM EST
Nautical Twilight 5:59 AM EST 7:05 PM EST
Astronomical Twilight 5:29 AM EST 7:36 PM EST
Moon 1:53 AM EST (2/25) 11:32 AM EST (2/25)
Length of Visible Light 12h 04m
Length of Day
11h 11m
Last Quarter, 42% of the Moon is Illuminated
Feb 25
Last Quarter
Mar 4
New
Mar 12
First Quarter
Mar 19
Full
Mar 26
Last Quarter

Hourly Weather History & Observations

Time (EST) Temp. Windchill Dew Point Humidity Pressure Visibility Wind Dir Wind Speed Gust Speed Precip Events Conditions
12:00 AM 41.0 °F 33.1 °F 41.0 °F 100% 29.81 in 0.2 mi South 15.0 mph 25.3 mph N/A   Overcast
12:20 AM 41.0 °F 33.1 °F 41.0 °F 100% 29.79 in 0.2 mi South 15.0 mph 23.0 mph N/A   Overcast
12:40 AM 39.2 °F 30.8 °F 39.2 °F 100% 29.77 in 0.2 mi South 15.0 mph 20.7 mph N/A   Overcast
1:00 AM 41.0 °F 32.2 °F 41.0 °F 100% 29.76 in 0.2 mi South 18.4 mph 25.3 mph N/A   Overcast
1:20 AM 41.0 °F 32.8 °F 41.0 °F 100% 29.75 in 0.2 mi South 16.1 mph 24.2 mph N/A   Overcast
1:40 AM 41.0 °F 31.9 °F 41.0 °F 100% 29.73 in 0.2 mi South 19.6 mph 25.3 mph N/A   Overcast
2:00 AM 41.0 °F 33.5 °F 41.0 °F 100% 29.71 in 0.2 mi South 13.8 mph 23.0 mph N/A   Overcast
2:40 AM 42.8 °F 34.3 °F 42.8 °F 100% 29.64 in 0.2 mi South 19.6 mph 26.5 mph N/A   Overcast
3:00 AM 42.8 °F 34.3 °F 42.8 °F 100% 29.64 in 0.2 mi South 19.6 mph 29.9 mph N/A   Overcast
3:20 AM 44.6 °F 37.4 °F 44.6 °F 100% 29.62 in 0.2 mi South 16.1 mph 27.6 mph N/A   Overcast
3:40 AM 44.6 °F 36.9 °F 44.6 °F 100% 29.61 in 0.2 mi South 18.4 mph 28.8 mph N/A   Overcast
4:00 AM 44.6 °F 36.9 °F 44.6 °F 100% 29.61 in 0.2 mi SSW 18.4 mph 25.3 mph N/A   Overcast
4:20 AM 44.6 °F 36.1 °F 44.6 °F 100% 29.61 in 0.2 mi SSW 21.9 mph 28.8 mph N/A   Overcast
4:40 AM 46.4 °F 39.2 °F 46.4 °F 100% 29.61 in 0.5 mi SSW 18.4 mph 32.2 mph N/A   Overcast
5:00 AM 48.2 °F - 48.2 °F 100% 29.61 in 1.5 mi SSW 20.7 mph 38.0 mph N/A   Overcast
5:20 AM 48.2 °F - 48.2 °F 100% 29.62 in 2.0 mi SW 25.3 mph 41.4 mph N/A   Overcast
5:40 AM 48.2 °F - 48.2 °F 100% 29.61 in 3.0 mi SW 25.3 mph 35.7 mph N/A   Overcast
6:00 AM 48.2 °F - 48.2 °F 100% 29.61 in 1.2 mi WSW 26.5 mph 33.4 mph N/A   Overcast
6:40 AM 48.2 °F - 48.2 °F 100% 29.58 in 4.0 mi WSW 19.6 mph 33.4 mph N/A   Overcast
7:00 AM 48.2 °F - 48.2 °F 100% 29.55 in 10.0 mi SW 19.6 mph 28.8 mph N/A   Overcast
7:20 AM 48.2 °F - 48.2 °F 100% 29.54 in 5.0 mi SSW 15.0 mph 35.7 mph N/A   Overcast
7:40 AM 48.2 °F - 48.2 °F 100% 29.54 in 10.0 mi SW 24.2 mph 35.7 mph N/A   Overcast
8:00 AM 48.2 °F - 48.2 °F 100% 29.54 in 10.0 mi WSW 25.3 mph 35.7 mph N/A   Overcast
8:20 AM 48.2 °F - 48.2 °F 100% 29.53 in 10.0 mi WSW 25.3 mph 36.8 mph N/A   Overcast
8:40 AM 48.2 °F - 48.2 °F 100% 29.53 in 10.0 mi WSW 24.2 mph 39.1 mph N/A   Overcast
9:00 AM 50.0 °F - 48.2 °F 94% 29.53 in 10.0 mi WSW 33.4 mph 42.6 mph N/A   Overcast
9:20 AM 51.8 °F - 48.2 °F 88% 29.52 in 10.0 mi WSW 26.5 mph 38.0 mph N/A   Mostly Cloudy
9:40 AM 51.8 °F - 48.2 °F 88% 29.51 in 10.0 mi WSW 25.3 mph 46.0 mph N/A   Overcast
10:20 AM 53.6 °F - 44.6 °F 72% 29.49 in 10.0 mi WSW 29.9 mph 51.8 mph N/A   Mostly Cloudy
10:40 AM 53.6 °F - 44.6 °F 72% 29.50 in 10.0 mi WSW 35.7 mph 44.9 mph N/A   Mostly Cloudy
11:00 AM 48.2 °F - 46.4 °F 93% 29.50 in 2.0 mi West 27.6 mph 42.6 mph N/A   Overcast
11:40 AM 48.2 °F - 44.6 °F 87% 29.53 in 10.0 mi West 32.2 mph 50.6 mph N/A   Overcast
12:00 PM 44.6 °F 33.5 °F 42.8 °F 93% 29.52 in 10.0 mi West 39.1 mph 51.8 mph N/A   Overcast
12:20 PM 42.8 °F 32.7 °F 39.2 °F 87% 29.56 in 10.0 mi West 27.6 mph 44.9 mph N/A   Overcast
12:40 PM 39.2 °F 26.6 °F 35.6 °F 87% 29.58 in 10.0 mi West 34.5 mph 47.2 mph N/A   Overcast
1:00 PM 39.2 °F 27.2 °F 35.6 °F 87% 29.61 in 10.0 mi West 31.1 mph 41.4 mph N/A   Overcast
1:20 PM 37.4 °F 23.6 °F 33.8 °F 87% 29.60 in 10.0 mi West 38.0 mph 50.6 mph N/A   Overcast
1:40 PM 33.8 °F 18.5 °F 30.2 °F 87% 29.64 in 10.0 mi West 39.1 mph 55.2 mph N/A   Overcast
2:00 PM 32.0 °F 17.2 °F 30.2 °F 93% 29.67 in 10.0 mi West 32.2 mph 50.6 mph N/A   Overcast
2:20 PM 32.0 °F 17.6 °F 30.2 °F 93% 29.69 in 10.0 mi West 29.9 mph 43.7 mph N/A   Overcast
2:40 PM 30.2 °F 15.9 °F 30.2 °F 100% 29.71 in 10.0 mi West 26.5 mph 41.4 mph N/A   Overcast
3:00 PM 30.2 °F 16.2 °F 28.4 °F 93% 29.74 in 10.0 mi West 25.3 mph 39.1 mph N/A   Overcast
3:20 PM 28.4 °F 14.7 °F 28.4 °F 100% 29.76 in 10.0 mi WNW 21.9 mph 40.3 mph N/A   Overcast
3:40 PM 28.4 °F 13.5 °F 26.6 °F 93% 29.80 in 10.0 mi WNW 26.5 mph 40.3 mph N/A   Overcast
4:00 PM 28.4 °F 13.8 °F 26.6 °F 93% 29.81 in 10.0 mi WNW 25.3 mph 40.3 mph N/A   Overcast
4:20 PM 28.4 °F 13.8 °F 24.8 °F 86% 29.83 in 10.0 mi West 25.3 mph 36.8 mph N/A   Overcast
4:40 PM 28.4 °F 15.8 °F 26.6 °F 93% 29.85 in 10.0 mi WNW 18.4 mph 32.2 mph N/A   Overcast
5:00 PM 26.6 °F 10.3 °F 24.8 °F 93% 29.87 in 10.0 mi West 29.9 mph 35.7 mph N/A   Overcast
5:20 PM 26.6 °F 11.7 °F 24.8 °F 93% 29.88 in 10.0 mi West 24.2 mph 33.4 mph N/A   Overcast
5:40 PM 26.6 °F 12.4 °F 26.6 °F 100% 29.88 in 10.0 mi WNW 21.9 mph 31.1 mph N/A   Overcast
6:00 PM 26.6 °F 13.4 °F 26.6 °F 100% 29.91 in 10.0 mi WNW 18.4 mph 33.4 mph N/A   Overcast
6:20 PM 26.6 °F 12.7 °F 26.6 °F 100% 29.93 in 10.0 mi West 20.7 mph 27.6 mph N/A   Overcast
6:40 PM 26.6 °F 12.4 °F 26.6 °F 100% 29.95 in 10.0 mi WNW 21.9 mph 31.1 mph N/A   Overcast
7:00 PM 26.6 °F 12.4 °F 26.6 °F 100% 29.97 in 10.0 mi West 21.9 mph 27.6 mph N/A   Overcast
7:20 PM 26.6 °F 12.4 °F 26.6 °F 100% 29.98 in 10.0 mi WNW 21.9 mph 28.8 mph N/A   Overcast
7:40 PM 26.6 °F 11.4 °F 24.8 °F 93% 29.99 in 10.0 mi WNW 25.3 mph 36.8 mph N/A   Overcast
8:00 PM 26.6 °F 11.7 °F 24.8 °F 93% 29.98 in 10.0 mi WNW 24.2 mph 35.7 mph N/A   Overcast
8:20 PM 24.8 °F 9.0 °F 24.8 °F 100% 29.98 in 10.0 mi NW 25.3 mph 36.8 mph N/A   Overcast
8:40 PM 24.8 °F 8.4 °F 23.0 °F 93% 29.98 in 10.0 mi NW 27.6 mph 35.7 mph N/A   Overcast
9:00 PM 24.8 °F 10.3 °F 23.0 °F 93% 29.99 in 10.0 mi WNW 20.7 mph 32.2 mph N/A   Overcast
9:20 PM 24.8 °F 10.0 °F 24.8 °F 100% 30.00 in 10.0 mi NW 21.9 mph 31.1 mph N/A   Overcast
9:40 PM 24.8 °F 11.9 °F 24.8 °F 100% 30.00 in 10.0 mi WNW 16.1 mph 31.1 mph N/A   Overcast
10:00 PM 24.8 °F 11.9 °F 24.8 °F 100% 30.03 in 10.0 mi WNW 16.1 mph 25.3 mph N/A   Overcast
10:20 PM 24.8 °F 13.4 °F 24.8 °F 100% 30.04 in 10.0 mi WNW 12.7 mph 25.3 mph N/A   Overcast
10:40 PM 24.8 °F 11.5 °F 24.8 °F 100% 30.04 in 10.0 mi WNW 17.3 mph 23.0 mph N/A   Overcast
11:00 PM 24.8 °F 11.9 °F 24.8 °F 100% 30.04 in 10.0 mi WNW 16.1 mph 21.9 mph N/A   Overcast
11:20 PM 24.8 °F 14.6 °F 24.8 °F 100% 30.05 in 10.0 mi WNW 10.4 mph - N/A   Overcast
11:40 PM 24.8 °F 13.4 °F 24.8 °F 100% 30.05 in 10.0 mi WNW 12.7 mph 17.3 mph N/A   Overcast